EA1AML-1 Fabero ES current weather conditions

sailwx.info

Wind from 250

Air temperature 14.4° C
Dewpoint 7.7° C

Last reported at 2017-Sep-19 21:56 UTC.
Time now 2017-Sep-19 22:20 UTC

Location: N 42°46' W 006°37'.
View on Google Maps.

See reports from other nearby stations

  
Tides and Currents Weather Stations Pressure Air Temp Water Temp Dewpoint Dewpoint Depression Visibility Wind Speed Wind Dir Waves Ship Positions
date/time (UTC)wind fromknots sea level pressurealtimeterstation pressurevisibilityair tempwater tempwave heightnotes
2017-Sep-19 22:05 257 13.9
2017-Sep-19 21:56 250 14.4
2017-Sep-19 21:47 220 0 gusting 1 14.4
2017-Sep-19 21:38 216 14.4
2017-Sep-19 21:29 138 15.0
2017-Sep-19 21:20 096 15.0
2017-Sep-19 21:11 106 15.6
2017-Sep-19 21:02 090 15.6
2017-Sep-19 20:53 090 16.1
2017-Sep-19 20:44 161 16.1
2017-Sep-19 20:35 241 16.1
2017-Sep-19 20:26 230 1 gusting 3 16.1
2017-Sep-19 20:17 252 16.1
2017-Sep-19 20:08 233 16.1
2017-Sep-19 19:59 142 16.1
2017-Sep-19 19:50 135 16.7
2017-Sep-19 19:41 144 17.2
2017-Sep-19 19:32 211 17.8
2017-Sep-19 19:23 225 18.3
2017-Sep-19 18:37 213 20.6
2017-Sep-19 18:28 257 1 gusting 6 20.6
2017-Sep-19 18:19 203 2 gusting 5 21.1
2017-Sep-19 18:10 204 1 gusting 6 21.1
2017-Sep-19 18:01 064 1 gusting 6 21.7
2017-Sep-19 17:52 177 1 gusting 4 22.2
2017-Sep-19 17:43 224 1 gusting 6 22.8
2017-Sep-19 17:34 099 0 gusting 3 23.3
2017-Sep-19 17:25 108 0 gusting 4 24.4
2017-Sep-19 17:16 071 0 gusting 3 25.6
2017-Sep-19 17:07 084 1 gusting 3 26.7
2017-Sep-19 16:58 089 0 gusting 3 26.1
2017-Sep-19 16:49 099 0 gusting 3 26.7
2017-Sep-19 16:40 107 1 gusting 3 26.7
2017-Sep-19 16:31 083 26.7
2017-Sep-19 16:22 109 0 gusting 3 26.7
2017-Sep-19 16:13 123 0 gusting 3 27.2
2017-Sep-19 16:04 159 0 gusting 2 27.2
2017-Sep-19 15:55 109 0 gusting 3 27.2
2017-Sep-19 15:46 094 27.2
2017-Sep-19 15:37 129 0 gusting 2 26.7
2017-Sep-19 15:28 089 0 gusting 1 27.2
2017-Sep-19 15:19 090 0 gusting 1 26.7
2017-Sep-19 15:10 107 26.1
2017-Sep-19 15:01 106 25.6
2017-Sep-19 14:52 123 25.0
2017-Sep-19 14:43 090 23.9
2017-Sep-19 14:34 241 0 gusting 3 23.3
2017-Sep-19 14:25 102 23.3
2017-Sep-19 14:16 154 23.3
2017-Sep-19 14:07 135 23.3
2017-Sep-19 13:58 188 22.8
2017-Sep-19 13:49 123 1 gusting 3 22.8
2017-Sep-19 13:40 088 22.8
2017-Sep-19 13:31 147 22.2
2017-Sep-19 13:22 066 21.7
2017-Sep-19 13:13 107 21.7
2017-Sep-19 13:04 097 21.1
2017-Sep-19 12:55 163 0 gusting 2 21.1
2017-Sep-19 12:46 120 21.1
2017-Sep-19 12:37 109 0 gusting 2 20.6
2017-Sep-19 12:28 080 0 gusting 3 20.6
2017-Sep-19 12:19 085 20.0
2017-Sep-19 12:10 135 20.0
2017-Sep-19 12:01 097 19.4
2017-Sep-19 11:52 122 0 gusting 1 19.4
2017-Sep-19 11:43 102 0 gusting 1 18.9
2017-Sep-19 11:34 103 18.3
2017-Sep-19 11:25 120 18.3
2017-Sep-19 11:16 084 17.8
2017-Sep-19 11:07 128 0 gusting 2 17.8
2017-Sep-19 10:58 117 17.8
2017-Sep-19 10:49 091 0 gusting 1 16.7
2017-Sep-19 10:40 080 16.7
2017-Sep-19 10:31 029 0 gusting 2 15.6
2017-Sep-19 10:22 131 0 gusting 1 15.6
2017-Sep-19 10:13 098 0 gusting 1 15.6
2017-Sep-19 10:04 101 0 gusting 2 15.0
2017-Sep-19 09:55 100 0 gusting 2 14.4
2017-Sep-19 09:46 105 13.9
2017-Sep-19 09:37 120 13.9
2017-Sep-19 09:28 110 13.3
2017-Sep-19 09:19 095 12.8
2017-Sep-19 09:10 090 12.2
2017-Sep-19 09:01 107 11.7
2017-Sep-19 08:52 091 11.1
2017-Sep-19 08:43 091 10.6
2017-Sep-19 08:34 104 10.0
2017-Sep-19 08:25 090 9.4
2017-Sep-19 08:16 090 8.9
2017-Sep-19 08:07 090 8.3
2017-Sep-19 07:58 090 0 gusting 1 7.8
2017-Sep-19 07:49 7.8
2017-Sep-19 07:40 090 7.2
2017-Sep-19 07:31 101 6.7
2017-Sep-19 07:22 7.2
2017-Sep-19 07:13 7.2
2017-Sep-19 07:04 090 7.2
2017-Sep-19 06:55 090 6.7
2017-Sep-19 06:46 090 6.7
2017-Sep-19 06:37 6.7
2017-Sep-19 06:28 090 6.7
2017-Sep-19 06:19 6.7
2017-Sep-19 06:10 090 6.7
2017-Sep-19 06:01 090 6.7
2017-Sep-19 05:52 090 6.7
2017-Sep-19 05:43 090 6.7
2017-Sep-19 05:34 045 6.7
2017-Sep-19 05:25 090 6.7
2017-Sep-19 05:16 090 6.7
2017-Sep-19 05:07 090 6.7
2017-Sep-19 04:58 6.7
2017-Sep-19 04:49 6.7
2017-Sep-19 04:40 7.2
2017-Sep-19 04:31 7.2
2017-Sep-19 04:22 090 7.2
2017-Sep-19 04:13 090 7.2
2017-Sep-19 04:04 090 7.2
2017-Sep-19 03:55 7.2
2017-Sep-19 03:46 090 7.2
2017-Sep-19 03:37 7.2
2017-Sep-19 03:28 090 7.8
2017-Sep-19 03:19 090 7.2
2017-Sep-19 03:10 090 7.8
2017-Sep-19 03:01 090 7.8
2017-Sep-19 02:52 090 7.8
2017-Sep-19 02:43 090 8.3
2017-Sep-19 02:34 102 8.9
2017-Sep-19 02:25 270 8.9
2017-Sep-19 02:16 270 0 gusting 1 8.3
2017-Sep-19 02:07 292 8.3
2017-Sep-19 01:58 090 8.3
2017-Sep-19 01:49 090 8.3
2017-Sep-19 01:40 090 8.3
2017-Sep-19 01:31 090 8.3
2017-Sep-19 01:22 093 8.9
2017-Sep-19 01:13 114 9.4
2017-Sep-19 01:04 270 10.0
2017-Sep-19 00:55 255 9.4
2017-Sep-19 00:46 270 9.4
2017-Sep-19 00:37 262 1 gusting 1 10.0
2017-Sep-19 00:28 9.4
2017-Sep-19 00:19 135 9.4
2017-Sep-19 00:10 135 10.0
2017-Sep-19 00:01 142 10.6
2017-Sep-18 23:52 267 0 gusting 1 10.6
2017-Sep-18 23:43 270 0 gusting 1 10.6
2017-Sep-18 23:34 250 10.6
2017-Sep-18 23:25 181 10.6
2017-Sep-18 23:16 237 10.6
2017-Sep-18 23:07 270 10.6
2017-Sep-18 22:58 090 10.6
2017-Sep-18 22:49 094 11.7
2017-Sep-18 22:40 270 11.1
2017-Sep-18 22:31 270 11.1
2017-Sep-18 22:22 241 0 gusting 1 11.1
2017-Sep-18 22:13 107 11.1
2017-Sep-18 22:04 087 11.7
2017-Sep-18 21:55 181 12.2
2017-Sep-18 21:46 232 12.2
2017-Sep-18 21:37 245 0 gusting 1 12.2
2017-Sep-18 21:28 095 12.2
2017-Sep-18 21:19 239 12.8
2017-Sep-18 21:10 252 1 gusting 1 12.8
2017-Sep-18 21:01 248 13.3
2017-Sep-18 20:52 266 0 gusting 2 13.3
2017-Sep-18 20:43 267 1 gusting 2 13.3
2017-Sep-18 20:34 225 13.3
2017-Sep-18 20:25 225 13.3
2017-Sep-18 20:05 225 13.9
2017-Sep-18 19:56 225 14.4
2017-Sep-18 19:47 225 14.4
2017-Sep-18 19:38 225 15.0
2017-Sep-18 19:29 228 15.0
2017-Sep-18 19:20 261 15.6
2017-Sep-18 19:11 254 15.6
2017-Sep-18 19:02 15.6
2017-Sep-18 18:53 141 16.1
2017-Sep-18 18:44 240 16.1
2017-Sep-18 18:35 225 16.7
2017-Sep-18 18:26 245 17.2
2017-Sep-18 18:17 247 0 gusting 1 17.2
2017-Sep-18 18:08 258 17.8
2017-Sep-18 17:59 227 17.8
2017-Sep-18 17:50 251 1 gusting 3 17.8
2017-Sep-18 17:41 245 18.3
2017-Sep-18 17:32 270 1 gusting 6 18.3
2017-Sep-18 17:23 279 4 gusting 6 18.9
2017-Sep-18 17:14 246 0 gusting 6 19.4
2017-Sep-18 17:05 273 0 gusting 3 20.0
2017-Sep-18 16:56 257 19.4
2017-Sep-18 16:47 252 0 gusting 1 18.9
2017-Sep-18 16:38 111 0 gusting 1 19.4
2017-Sep-18 16:29 106 19.4
2017-Sep-18 16:20 090 19.4
2017-Sep-18 16:11 142 18.9
2017-Sep-18 16:02 118 18.9
2017-Sep-18 15:53 158 18.9
2017-Sep-18 15:44 095 18.9
2017-Sep-18 15:35 119 0 gusting 2 18.9
2017-Sep-18 15:26 131 18.9
2017-Sep-18 15:17 094 0 gusting 1 18.9
2017-Sep-18 15:08 141 18.9
2017-Sep-18 14:59 096 18.3
2017-Sep-18 14:50 153 18.9
2017-Sep-18 14:41 102 18.9
2017-Sep-18 14:22 119 1 gusting 3 18.9
2017-Sep-18 14:13 109 18.9
2017-Sep-18 14:04 105 18.3
2017-Sep-18 13:55 124 0 gusting 2 17.8
2017-Sep-18 13:46 111 0 gusting 1 17.8
2017-Sep-18 13:37 106 17.2
2017-Sep-18 13:28 089 16.7
2017-Sep-18 13:19 088 16.7
2017-Sep-18 13:10 118 16.7
2017-Sep-18 13:01 151 16.7
2017-Sep-18 12:52 120 0 gusting 2 16.7
2017-Sep-18 12:43 111 16.7
2017-Sep-18 12:34 099 16.7
2017-Sep-18 12:25 099 16.1
2017-Sep-18 12:16 092 15.6
2017-Sep-18 12:07 095 15.6
2017-Sep-18 11:58 084 15.6
2017-Sep-18 11:49 097 15.6
2017-Sep-18 11:40 117 15.6
2017-Sep-18 11:31 122 15.0
2017-Sep-18 11:22 085 0 gusting 1 14.4
2017-Sep-18 11:13 101 14.4
2017-Sep-18 11:04 091 1 gusting 1 14.4
2017-Sep-18 10:55 099 14.4
2017-Sep-18 10:46 090 0 gusting 1 13.9
2017-Sep-18 10:37 099 0 gusting 1 13.3
2017-Sep-18 10:28 090 13.3
2017-Sep-18 10:19 085 13.3
2017-Sep-18 10:10 233 12.8
2017-Sep-18 10:01 057 12.8
2017-Sep-18 09:52 048 12.8
2017-Sep-18 09:43 210 12.8
2017-Sep-18 09:34 152 1 gusting 2 12.8
2017-Sep-18 09:25 100 12.8
2017-Sep-18 09:16 097 0 gusting 0 12.8
2017-Sep-18 09:07 117 12.8
2017-Sep-18 08:58 090 12.2
2017-Sep-18 08:49 131 12.2
2017-Sep-18 08:40 107 12.2
2017-Sep-18 08:31 090 12.2
2017-Sep-18 08:22 045 12.2
2017-Sep-18 08:13 112 12.2
2017-Sep-18 08:04 103 11.7
2017-Sep-18 07:55 141 11.7
2017-Sep-18 07:46 135 11.7
2017-Sep-18 07:37 090 11.7
2017-Sep-18 07:28 106 11.7
2017-Sep-18 07:19 130 11.7
2017-Sep-18 07:10 124 11.7
2017-Sep-18 07:01 107 11.7
2017-Sep-18 06:52 116 11.7
2017-Sep-18 06:43 093 11.7
2017-Sep-18 06:34 090 11.7
2017-Sep-18 06:25 090 11.7
2017-Sep-18 06:16 090 11.1
2017-Sep-18 06:07 270 11.7
2017-Sep-18 05:58 270 11.7
2017-Sep-18 05:49 270 11.7
2017-Sep-18 05:40 270 11.1
2017-Sep-18 05:31 128 11.1
2017-Sep-18 05:22 119 11.1
2017-Sep-18 05:13 249 11.1
2017-Sep-18 05:04 270 1 gusting 1 11.1
2017-Sep-18 04:55 11.1
2017-Sep-18 04:46 11.1
2017-Sep-18 04:37 163 11.1
2017-Sep-18 04:28 265 11.1
2017-Sep-18 04:19 090 11.1
2017-Sep-18 04:10 094 11.1
2017-Sep-18 04:01 090 11.1
2017-Sep-18 03:52 090 11.1
2017-Sep-18 03:43 11.1
2017-Sep-18 03:34 090 11.1
2017-Sep-18 03:25 102 11.1
2017-Sep-18 03:16 093 11.1
2017-Sep-18 03:07 090 11.1
2017-Sep-18 02:58 090 11.1
2017-Sep-18 02:49 094 11.1
2017-Sep-18 02:40 125 11.1
2017-Sep-18 02:31 252 11.1
2017-Sep-18 02:22 169 0 gusting 1 11.7
2017-Sep-18 02:13 090 11.7
2017-Sep-18 02:04 096 11.7
2017-Sep-18 01:55 298 11.7
2017-Sep-18 01:46 090 11.7
2017-Sep-18 01:37 090 11.7
2017-Sep-18 01:28 110 11.7
2017-Sep-18 01:19 191 11.7
2017-Sep-18 01:10 090 11.1
2017-Sep-18 01:01 090 11.1
2017-Sep-18 00:52 116 11.7
2017-Sep-18 00:43 096 11.7
2017-Sep-18 00:34 108 11.7
2017-Sep-18 00:25 231 11.7
2017-Sep-18 00:16 125 11.7
2017-Sep-18 00:07 269 11.7
2017-Sep-17 23:58 241 1 gusting 2 11.7
2017-Sep-17 23:49 260 11.7
2017-Sep-17 23:40 090 12.2
2017-Sep-17 23:31 090 12.2
2017-Sep-17 23:22 104 12.2
2017-Sep-17 23:13 167 12.2
2017-Sep-17 23:04 132 12.8
2017-Sep-17 22:55 096 12.8
2017-Sep-17 22:46 097 12.8
2017-Sep-17 22:37 259 12.8
2017-Sep-17 22:28 090 12.8
2017-Sep-17 22:19 085 12.8
2017-Sep-17 22:10 267 12.8
2017-Sep-17 22:01 106 12.8